Time,TemperatureF,DewpointF,PressureIn,WindDirection,WindDirectionDegrees,WindSpeedMPH,WindSpeedGustMPH,Humidity,HourlyPrecipIn,Conditions,Clouds,dailyrainin,SoftwareType,DateUTC
2013-09-07 00:00:00,70.3,63.1,29.84,WSW,245,0.0,1.0,78,0.00,,---,0.00,VWS V14.00,2013-09-07 05:00:00,
2013-09-07 00:05:00,70.2,63.0,29.83,WSW,245,0.0,0.0,78,0.00,,---,0.00,VWS V14.00,2013-09-07 05:05:00,
2013-09-07 00:10:00,70.1,62.9,29.83,WSW,245,0.0,0.0,78,0.00,,---,0.00,VWS V14.00,2013-09-07 05:10:00,
2013-09-07 00:15:00,70.4,62.8,29.83,West,278,0.0,0.0,77,0.00,,---,0.00,VWS V14.00,2013-09-07 05:15:00,
2013-09-07 00:20:00,70.4,62.8,29.83,West,277,0.0,0.0,77,0.00,,---,0.00,VWS V14.00,2013-09-07 05:20:00,
2013-09-07 00:25:00,70.4,62.8,29.83,West,278,0.0,1.0,77,0.00,,---,0.00,VWS V14.00,2013-09-07 05:25:00,
2013-09-07 00:30:00,70.3,62.8,29.83,West,277,0.0,0.0,77,0.00,,---,0.00,VWS V14.00,2013-09-07 05:30:00,
2013-09-07 00:35:00,70.2,62.7,29.83,West,278,0.0,0.0,77,0.00,,---,0.00,VWS V14.00,2013-09-07 05:35:00,
2013-09-07 00:40:00,70.0,62.5,29.83,West,277,0.0,0.0,77,0.00,,---,0.00,VWS V14.00,2013-09-07 05:40:00,
2013-09-07 00:45:00,69.9,62.7,29.83,West,278,0.0,0.0,78,0.00,,---,0.00,VWS V14.00,2013-09-07 05:45:00,
2013-09-07 00:50:00,69.8,62.6,29.83,West,278,0.0,0.0,78,0.00,,---,0.00,VWS V14.00,2013-09-07 05:50:00,
2013-09-07 00:55:00,69.8,62.6,29.83,West,278,0.0,1.0,78,0.00,,---,0.00,VWS V14.00,2013-09-07 05:55:00,
2013-09-07 01:00:00,69.6,62.8,29.83,West,277,0.0,0.0,79,0.00,,---,0.00,VWS V14.00,2013-09-07 06:00:00,
2013-09-07 01:05:00,69.4,62.6,29.83,West,278,0.0,0.0,79,0.00,,---,0.00,VWS V14.00,2013-09-07 06:05:00,
2013-09-07 01:10:00,69.3,62.5,29.83,West,277,0.0,0.0,79,0.00,,---,0.00,VWS V14.00,2013-09-07 06:10:00,
2013-09-07 01:15:00,69.3,62.5,29.83,West,267,1.0,1.0,79,0.00,,---,0.00,VWS V14.00,2013-09-07 06:15:00,
2013-09-07 01:20:00,69.4,62.6,29.83,West,267,0.0,0.0,79,0.00,,---,0.00,VWS V14.00,2013-09-07 06:20:00,
2013-09-07 01:25:00,69.4,62.6,29.83,West,267,0.0,0.0,79,0.00,,---,0.00,VWS V14.00,2013-09-07 06:25:00,
2013-09-07 01:30:00,69.7,62.5,29.83,West,267,0.0,0.0,78,0.00,,---,0.00,VWS V14.00,2013-09-07 06:30:00,
2013-09-07 01:35:00,70.1,62.6,29.83,West,267,0.0,0.0,77,0.00,,---,0.00,VWS V14.00,2013-09-07 06:35:00,
2013-09-07 01:40:00,70.4,62.8,29.83,West,267,0.0,0.0,77,0.00,,---,0.00,VWS V14.00,2013-09-07 06:40:00,
2013-09-07 01:45:00,70.4,62.8,29.82,West,267,0.0,0.0,77,0.00,,---,0.00,VWS V14.00,2013-09-07 06:45:00,
2013-09-07 01:50:00,70.6,63.0,29.82,West,267,0.0,1.0,77,0.00,,---,0.00,VWS V14.00,2013-09-07 06:50:00,
2013-09-07 01:51:00,70.6,63.0,29.82,West,267,0.0,0.0,77,0.00,,---,0.00,VWS V14.00,2013-09-07 06:51:00,
2013-09-07 01:55:00,70.6,63.0,29.82,West,267,0.0,1.0,77,0.00,,---,0.00,VWS V14.00,2013-09-07 06:55:00,
2013-09-07 01:56:00,70.5,63.0,29.82,West,267,0.0,0.0,77,0.00,,---,0.00,VWS V14.00,2013-09-07 06:56:00,
2013-09-07 02:00:00,70.4,62.8,29.82,SW,221,0.0,5.0,77,0.00,,---,0.00,VWS V14.00,2013-09-07 07:00:00,
2013-09-07 02:01:00,70.4,62.8,29.82,SW,221,0.0,0.0,77,0.00,,---,0.00,VWS V14.00,2013-09-07 07:01:00,
2013-09-07 02:05:00,70.6,63.0,29.82,SW,221,0.0,0.0,77,0.00,,---,0.00,VWS V14.00,2013-09-07 07:05:00,
2013-09-07 02:06:00,70.7,63.1,29.82,SW,221,0.0,1.0,77,0.00,,---,0.00,VWS V14.00,2013-09-07 07:06:00,
2013-09-07 02:10:00,70.9,63.3,29.82,SW,221,0.0,2.0,77,0.00,,---,0.00,VWS V14.00,2013-09-07 07:10:00,
2013-09-07 02:11:00,70.9,63.3,29.82,SW,221,0.0,0.0,77,0.00,,---,0.00,VWS V14.00,2013-09-07 07:11:00,
2013-09-07 02:15:00,71.0,63.4,29.82,SW,221,0.0,1.0,77,0.00,,---,0.00,VWS V14.00,2013-09-07 07:15:00,
2013-09-07 02:16:00,71.0,63.1,29.82,SW,221,0.0,2.0,76,0.00,,---,0.00,VWS V14.00,2013-09-07 07:16:00,
2013-09-07 02:20:00,71.2,63.3,29.82,SSE,157,0.0,3.0,76,0.00,,---,0.00,VWS V14.00,2013-09-07 07:20:00,
2013-09-07 02:21:00,71.3,63.3,29.82,NNE,29,0.0,1.0,76,0.00,,---,0.00,VWS V14.00,2013-09-07 07:21:00,
2013-09-07 02:25:00,71.4,63.1,29.82,WSW,247,0.0,4.0,75,0.00,,---,0.00,VWS V14.00,2013-09-07 07:25:00,
2013-09-07 02:26:00,71.5,63.2,29.82,WSW,240,0.0,1.0,75,0.00,,---,0.00,VWS V14.00,2013-09-07 07:26:00,
2013-09-07 02:30:00,71.7,63.4,29.82,WSW,240,0.0,1.0,75,0.00,,---,0.00,VWS V14.00,2013-09-07 07:30:00,
2013-09-07 02:31:00,71.8,63.5,29.82,WSW,240,0.0,1.0,75,0.00,,---,0.00,VWS V14.00,2013-09-07 07:31:00,
2013-09-07 02:35:00,71.8,63.1,29.82,West,259,0.0,1.0,74,0.00,,---,0.00,VWS V14.00,2013-09-07 07:35:00,
2013-09-07 02:36:00,71.8,63.1,29.82,West,260,0.0,0.0,74,0.00,,---,0.00,VWS V14.00,2013-09-07 07:36:00,
2013-09-07 02:40:00,71.8,63.1,29.82,West,260,0.0,0.0,74,0.00,,---,0.00,VWS V14.00,2013-09-07 07:40:00,
2013-09-07 02:41:00,71.8,63.1,29.82,West,260,0.0,0.0,74,0.00,,---,0.00,VWS V14.00,2013-09-07 07:41:00,
2013-09-07 02:45:00,71.7,63.4,29.82,West,281,0.0,1.0,75,0.00,,---,0.00,VWS V14.00,2013-09-07 07:45:00,
2013-09-07 02:46:00,71.5,63.2,29.82,WNW,284,0.0,1.0,75,0.00,,---,0.00,VWS V14.00,2013-09-07 07:46:00,
2013-09-07 02:50:00,71.5,63.2,29.82,WNW,283,0.0,1.0,75,0.00,,---,0.00,VWS V14.00,2013-09-07 07:50:00,
2013-09-07 02:51:00,71.4,63.1,29.82,WNW,284,0.0,1.0,75,0.00,,---,0.00,VWS V14.00,2013-09-07 07:51:00,
2013-09-07 02:55:00,71.4,63.1,29.82,WNW,288,0.0,1.0,75,0.00,,---,0.00,VWS V14.00,2013-09-07 07:55:00,
2013-09-07 02:56:00,71.3,63.0,29.82,WNW,288,0.0,0.0,75,0.00,,---,0.00,VWS V14.00,2013-09-07 07:56:00,
2013-09-07 03:00:00,71.2,62.9,29.82,WNW,288,0.0,1.0,75,0.00,,---,0.00,VWS V14.00,2013-09-07 08:00:00,
2013-09-07 03:01:00,71.1,63.2,29.82,WNW,287,0.0,1.0,76,0.00,,---,0.00,VWS V14.00,2013-09-07 08:01:00,
2013-09-07 03:05:00,71.0,63.1,29.82,WNW,298,1.0,1.0,76,0.00,,---,0.00,VWS V14.00,2013-09-07 08:05:00,
2013-09-07 03:06:00,70.9,63.0,29.82,WNW,298,0.0,1.0,76,0.00,,---,0.00,VWS V14.00,2013-09-07 08:06:00,
2013-09-07 03:10:00,70.7,62.8,29.82,WNW,298,0.0,1.0,76,0.00,,---,0.00,VWS V14.00,2013-09-07 08:10:00,
2013-09-07 03:11:00,70.6,62.7,29.82,WNW,298,0.0,1.0,76,0.00,,---,0.00,VWS V14.00,2013-09-07 08:11:00,
2013-09-07 03:15:00,70.5,63.0,29.82,WNW,293,0.0,1.0,77,0.00,,---,0.00,VWS V14.00,2013-09-07 08:15:00,
2013-09-07 03:16:00,70.3,62.8,29.82,West,271,3.0,4.0,77,0.00,,---,0.00,VWS V14.00,2013-09-07 08:16:00,
2013-09-07 03:20:00,70.3,62.8,29.82,West,273,0.0,4.0,77,0.00,,---,0.00,VWS V14.00,2013-09-07 08:20:00,
2013-09-07 03:21:00,70.2,62.7,29.82,West,277,0.0,1.0,77,0.00,,---,0.00,VWS V14.00,2013-09-07 08:21:00,
2013-09-07 03:25:00,70.2,63.0,29.82,West,277,0.0,1.0,78,0.00,,---,0.00,VWS V14.00,2013-09-07 08:25:00,
2013-09-07 03:26:00,70.1,62.9,29.82,West,269,1.0,2.0,78,0.00,,---,0.00,VWS V14.00,2013-09-07 08:26:00,
2013-09-07 03:30:00,70.1,62.9,29.81,West,269,0.0,2.0,78,0.00,,---,0.00,VWS V14.00,2013-09-07 08:30:00,
2013-09-07 03:31:00,70.1,62.9,29.81,West,269,0.0,0.0,78,0.00,,---,0.00,VWS V14.00,2013-09-07 08:31:00,
2013-09-07 03:35:00,70.1,62.9,29.81,West,268,0.0,2.0,78,0.00,,---,0.00,VWS V14.00,2013-09-07 08:35:00,
2013-09-07 03:36:00,70.0,62.8,29.81,West,268,0.0,0.0,78,0.00,,---,0.00,VWS V14.00,2013-09-07 08:36:00,
2013-09-07 03:40:00,69.9,62.7,29.81,West,268,0.0,1.0,78,0.00,,---,0.00,VWS V14.00,2013-09-07 08:40:00,
2013-09-07 03:41:00,69.9,62.7,29.81,West,268,0.0,0.0,78,0.00,,---,0.00,VWS V14.00,2013-09-07 08:41:00,
2013-09-07 03:45:00,69.8,62.6,29.81,West,268,0.0,0.0,78,0.00,,---,0.00,VWS V14.00,2013-09-07 08:45:00,
2013-09-07 03:47:00,69.8,62.6,29.81,West,268,0.0,0.0,78,0.00,,---,0.00,VWS V14.00,2013-09-07 08:47:00,
2013-09-07 03:50:00,69.8,62.6,29.81,West,268,0.0,0.0,78,0.00,,---,0.00,VWS V14.00,2013-09-07 08:50:00,
2013-09-07 03:52:00,69.7,62.5,29.81,West,268,0.0,0.0,78,0.00,,---,0.00,VWS V14.00,2013-09-07 08:52:00,
2013-09-07 03:55:00,69.7,62.5,29.81,West,268,0.0,0.0,78,0.00,,---,0.00,VWS V14.00,2013-09-07 08:55:00,
2013-09-07 03:57:00,69.7,62.5,29.81,West,268,0.0,0.0,78,0.00,,---,0.00,VWS V14.00,2013-09-07 08:57:00,
2013-09-07 04:00:00,69.7,62.5,29.80,West,268,0.0,1.0,78,0.00,,---,0.00,VWS V14.00,2013-09-07 09:00:00,
2013-09-07 04:02:00,69.7,62.9,29.81,WSW,252,0.0,4.0,79,0.00,,---,0.00,VWS V14.00,2013-09-07 09:02:00,
2013-09-07 04:05:00,69.7,62.9,29.81,WSW,252,0.0,4.0,79,0.00,,---,0.00,VWS V14.00,2013-09-07 09:05:00,
2013-09-07 04:07:00,69.7,62.5,29.81,WSW,252,0.0,0.0,78,0.00,,---,0.00,VWS V14.00,2013-09-07 09:07:00,
2013-09-07 04:10:00,69.8,62.6,29.81,WSW,252,0.0,0.0,78,0.00,,---,0.00,VWS V14.00,2013-09-07 09:10:00,
2013-09-07 04:12:00,69.8,62.6,29.81,WSW,252,0.0,0.0,78,0.00,,---,0.00,VWS V14.00,2013-09-07 09:12:00,
2013-09-07 04:15:00,69.8,62.6,29.81,WSW,252,0.0,0.0,78,0.00,,---,0.00,VWS V14.00,2013-09-07 09:15:00,
2013-09-07 04:17:00,69.9,62.7,29.81,WSW,252,0.0,3.0,78,0.00,,---,0.00,VWS V14.00,2013-09-07 09:17:00,
2013-09-07 04:20:00,70.0,62.8,29.81,WSW,252,0.0,3.0,78,0.00,,---,0.00,VWS V14.00,2013-09-07 09:20:00,
2013-09-07 04:22:00,70.1,62.9,29.81,WSW,249,0.0,1.0,78,0.00,,---,0.00,VWS V14.00,2013-09-07 09:22:00,
2013-09-07 04:25:00,70.1,62.9,29.81,SW,236,0.0,1.0,78,0.00,,---,0.00,VWS V14.00,2013-09-07 09:25:00,
2013-09-07 04:27:00,70.2,63.0,29.80,SW,223,0.0,5.0,78,0.00,,---,0.00,VWS V14.00,2013-09-07 09:27:00,
2013-09-07 04:30:00,70.3,62.8,29.80,SW,223,0.0,5.0,77,0.00,,---,0.00,VWS V14.00,2013-09-07 09:30:00,
2013-09-07 04:32:00,70.4,62.8,29.80,SW,223,0.0,1.0,77,0.00,,---,0.00,VWS V14.00,2013-09-07 09:32:00,
2013-09-07 04:35:00,70.6,63.0,29.80,SW,219,0.0,2.0,77,0.00,,---,0.00,VWS V14.00,2013-09-07 09:35:00,
2013-09-07 04:37:00,70.7,62.8,29.80,SW,219,1.0,2.0,76,0.00,,---,0.00,VWS V14.00,2013-09-07 09:37:00,
2013-09-07 04:40:00,70.7,62.8,29.80,SW,219,0.0,2.0,76,0.00,,---,0.00,VWS V14.00,2013-09-07 09:40:00,
2013-09-07 04:42:00,70.8,62.9,29.80,SW,220,0.0,1.0,76,0.00,,---,0.00,VWS V14.00,2013-09-07 09:42:00,
2013-09-07 04:45:00,70.8,62.9,29.80,SW,219,0.0,1.0,76,0.00,,---,0.00,VWS V14.00,2013-09-07 09:45:00,
2013-09-07 04:47:00,70.8,62.9,29.80,SW,219,1.0,1.0,76,0.00,,---,0.00,VWS V14.00,2013-09-07 09:47:00,
2013-09-07 04:50:00,70.8,62.9,29.80,SW,218,0.0,1.0,76,0.00,,---,0.00,VWS V14.00,2013-09-07 09:50:00,
2013-09-07 04:52:00,70.8,62.9,29.80,SW,232,0.0,2.0,76,0.00,,---,0.00,VWS V14.00,2013-09-07 09:52:00,
2013-09-07 04:55:00,70.8,62.9,29.80,SW,232,0.0,2.0,76,0.00,,---,0.00,VWS V14.00,2013-09-07 09:55:00,
2013-09-07 04:57:00,70.9,63.0,29.80,SW,225,0.0,4.0,76,0.00,,---,0.00,VWS V14.00,2013-09-07 09:57:00,
2013-09-07 05:00:00,70.9,63.0,29.80,SW,225,0.0,4.0,76,0.00,,---,0.00,VWS V14.00,2013-09-07 10:00:00,
2013-09-07 05:02:00,70.9,63.0,29.80,SW,220,0.0,4.0,76,0.00,,---,0.00,VWS V14.00,2013-09-07 10:02:00,
2013-09-07 05:05:00,71.0,63.1,29.80,SW,220,0.0,4.0,76,0.00,,---,0.00,VWS V14.00,2013-09-07 10:05:00,
2013-09-07 05:07:00,71.0,63.1,29.80,SW,220,0.0,1.0,76,0.00,,---,0.00,VWS V14.00,2013-09-07 10:07:00,
2013-09-07 05:10:00,71.0,63.1,29.80,SW,220,0.0,1.0,76,0.00,,---,0.00,VWS V14.00,2013-09-07 10:10:00,
2013-09-07 05:12:00,70.9,63.0,29.80,SW,219,0.0,1.0,76,0.00,,---,0.00,VWS V14.00,2013-09-07 10:12:00,
2013-09-07 05:15:00,70.9,63.0,29.80,SW,220,0.0,1.0,76,0.00,,---,0.00,VWS V14.00,2013-09-07 10:15:00,
2013-09-07 05:17:00,70.8,62.9,29.80,SW,220,0.0,1.0,76,0.00,,---,0.00,VWS V14.00,2013-09-07 10:17:00,
2013-09-07 05:20:00,70.8,62.9,29.80,SW,219,0.0,1.0,76,0.00,,---,0.00,VWS V14.00,2013-09-07 10:20:00,
2013-09-07 05:22:00,70.8,62.9,29.80,SW,219,0.0,1.0,76,0.00,,---,0.00,VWS V14.00,2013-09-07 10:22:00,
2013-09-07 05:25:00,70.8,63.2,29.80,SW,220,0.0,1.0,77,0.00,,---,0.00,VWS V14.00,2013-09-07 10:25:00,
2013-09-07 05:28:00,70.7,62.8,29.80,SW,220,0.0,1.0,76,0.00,,---,0.00,VWS V14.00,2013-09-07 10:28:00,
2013-09-07 05:30:00,70.7,62.8,29.80,SW,220,0.0,1.0,76,0.00,,---,0.00,VWS V14.00,2013-09-07 10:30:00,
2013-09-07 05:33:00,70.7,62.8,29.80,SW,219,0.0,1.0,76,0.00,,---,0.00,VWS V14.00,2013-09-07 10:33:00,
2013-09-07 05:35:00,70.7,62.8,29.80,SW,219,1.0,1.0,76,0.00,,---,0.00,VWS V14.00,2013-09-07 10:35:00,
2013-09-07 05:38:00,70.7,63.1,29.80,SW,219,0.0,1.0,77,0.00,,---,0.00,VWS V14.00,2013-09-07 10:38:00,
2013-09-07 05:40:00,70.7,63.1,29.80,SW,219,0.0,1.0,77,0.00,,---,0.00,VWS V14.00,2013-09-07 10:40:00,
2013-09-07 05:43:00,70.6,63.0,29.80,SW,220,0.0,0.0,77,0.00,,---,0.00,VWS V14.00,2013-09-07 10:43:00,
2013-09-07 05:45:00,70.6,63.4,29.80,SW,220,0.0,0.0,78,0.00,,---,0.00,VWS V14.00,2013-09-07 10:45:00,
2013-09-07 05:48:00,70.4,63.2,29.80,SW,227,0.0,4.0,78,0.00,,---,0.00,VWS V14.00,2013-09-07 10:48:00,
2013-09-07 05:50:00,70.3,63.1,29.80,SW,221,0.0,4.0,78,0.00,,---,0.00,VWS V14.00,2013-09-07 10:50:00,
2013-09-07 05:53:00,70.2,63.4,29.80,SW,221,0.0,1.0,79,0.00,,---,0.00,VWS V14.00,2013-09-07 10:53:00,
2013-09-07 05:55:00,70.1,63.3,29.80,SW,221,0.0,1.0,79,0.00,,---,0.00,VWS V14.00,2013-09-07 10:55:00,
2013-09-07 05:58:00,70.0,63.2,29.80,SW,221,0.0,1.0,79,0.00,,---,0.00,VWS V14.00,2013-09-07 10:58:00,
2013-09-07 06:00:00,70.0,63.2,29.80,SW,221,0.0,1.0,79,0.00,,---,0.00,VWS V14.00,2013-09-07 11:00:00,
2013-09-07 06:03:00,69.9,63.1,29.80,SW,221,0.0,0.0,79,0.00,,---,0.00,VWS V14.00,2013-09-07 11:03:00,
2013-09-07 06:05:00,69.8,63.4,29.80,SW,221,0.0,0.0,80,0.00,,---,0.00,VWS V14.00,2013-09-07 11:05:00,
2013-09-07 06:08:00,69.7,63.3,29.80,SW,221,0.0,1.0,80,0.00,,---,0.00,VWS V14.00,2013-09-07 11:08:00,
2013-09-07 06:10:00,69.6,63.2,29.80,SW,221,0.0,1.0,80,0.00,,---,0.00,VWS V14.00,2013-09-07 11:10:00,
2013-09-07 06:13:00,69.4,63.3,29.81,SW,221,0.0,1.0,81,0.00,,---,0.00,VWS V14.00,2013-09-07 11:13:00,
2013-09-07 06:15:00,69.3,63.2,29.81,SW,221,0.0,1.0,81,0.00,,---,0.00,VWS V14.00,2013-09-07 11:15:00,
2013-09-07 06:18:00,69.1,63.0,29.81,SW,221,0.0,0.0,81,0.00,,---,0.00,VWS V14.00,2013-09-07 11:18:00,
2013-09-07 06:20:00,69.1,63.0,29.81,SW,221,0.0,0.0,81,0.00,,---,0.00,VWS V14.00,2013-09-07 11:20:00,
2013-09-07 06:23:00,68.9,63.2,29.81,SW,221,0.0,0.0,82,0.00,,---,0.00,VWS V14.00,2013-09-07 11:23:00,
2013-09-07 06:25:00,68.8,63.1,29.81,SW,221,0.0,0.0,82,0.00,,---,0.00,VWS V14.00,2013-09-07 11:25:00,
2013-09-07 06:28:00,68.6,62.9,29.81,SW,221,0.0,0.0,82,0.00,,---,0.00,VWS V14.00,2013-09-07 11:28:00,
2013-09-07 06:30:00,68.6,62.9,29.81,SW,221,0.0,0.0,82,0.00,,---,0.00,VWS V14.00,2013-09-07 11:30:00,
2013-09-07 06:33:00,68.3,62.9,29.81,SW,221,0.0,0.0,83,0.00,,---,0.00,VWS V14.00,2013-09-07 11:33:00,
2013-09-07 06:35:00,68.2,62.8,29.81,SW,221,0.0,0.0,83,0.00,,---,0.00,VWS V14.00,2013-09-07 11:35:00,
2013-09-07 06:38:00,68.0,63.0,29.81,SW,221,0.0,0.0,84,0.00,,---,0.00,VWS V14.00,2013-09-07 11:38:00,
2013-09-07 06:40:00,67.9,62.9,29.81,SW,221,0.0,0.0,84,0.00,,---,0.00,VWS V14.00,2013-09-07 11:40:00,
2013-09-07 06:43:00,67.7,62.7,29.81,SW,221,0.0,0.0,84,0.00,,---,0.00,VWS V14.00,2013-09-07 11:43:00,
2013-09-07 06:45:00,67.7,62.7,29.81,SW,221,0.0,0.0,84,0.00,,---,0.00,VWS V14.00,2013-09-07 11:45:00,
2013-09-07 06:48:00,67.5,62.8,29.81,SW,221,0.0,0.0,85,0.00,,---,0.00,VWS V14.00,2013-09-07 11:48:00,
2013-09-07 06:50:00,67.5,62.8,29.81,SW,221,0.0,0.0,85,0.00,,---,0.00,VWS V14.00,2013-09-07 11:50:00,
2013-09-07 06:53:00,67.2,62.5,29.81,SW,221,0.0,0.0,85,0.00,,---,0.00,VWS V14.00,2013-09-07 11:53:00,
2013-09-07 06:55:00,67.2,62.9,29.81,SW,221,0.0,0.0,86,0.00,,---,0.00,VWS V14.00,2013-09-07 11:55:00,
2013-09-07 06:58:00,67.0,62.7,29.81,SW,221,0.0,0.0,86,0.00,,---,0.00,VWS V14.00,2013-09-07 11:58:00,
2013-09-07 07:00:00,67.0,62.7,29.81,SW,221,0.0,0.0,86,0.00,,---,0.00,VWS V14.00,2013-09-07 12:00:00,
2013-09-07 07:03:00,66.9,62.9,29.81,SW,221,0.0,0.0,87,0.00,,---,0.00,VWS V14.00,2013-09-07 12:03:00,
2013-09-07 07:05:00,66.9,62.9,29.81,SW,221,0.0,0.0,87,0.00,,---,0.00,VWS V14.00,2013-09-07 12:05:00,
2013-09-07 07:09:00,66.9,62.9,29.81,SW,221,0.0,0.0,87,0.00,,---,0.00,VWS V14.00,2013-09-07 12:09:00,
2013-09-07 07:10:00,66.9,62.9,29.81,SW,221,0.0,0.0,87,0.00,,---,0.00,VWS V14.00,2013-09-07 12:10:00,
2013-09-07 07:14:00,67.1,63.1,29.82,SW,221,0.0,0.0,87,0.00,,---,0.00,VWS V14.00,2013-09-07 12:14:00,
2013-09-07 07:15:00,67.1,63.1,29.82,SW,221,0.0,0.0,87,0.00,,---,0.00,VWS V14.00,2013-09-07 12:15:00,
2013-09-07 07:19:00,67.3,63.6,29.81,SW,221,0.0,0.0,88,0.00,,---,0.00,VWS V14.00,2013-09-07 12:19:00,
2013-09-07 07:20:00,67.3,63.6,29.81,SW,221,0.0,0.0,88,0.00,,---,0.00,VWS V14.00,2013-09-07 12:20:00,
2013-09-07 07:24:00,67.6,63.6,29.82,SW,221,0.0,1.0,87,0.00,,---,0.00,VWS V14.00,2013-09-07 12:24:00,
2013-09-07 07:25:00,67.6,63.6,29.82,SW,221,0.0,1.0,87,0.00,,---,0.00,VWS V14.00,2013-09-07 12:25:00,
2013-09-07 07:29:00,67.7,63.4,29.81,South,179,0.0,2.0,86,0.00,,---,0.00,VWS V14.00,2013-09-07 12:29:00,
2013-09-07 07:30:00,67.7,63.4,29.81,South,179,0.0,2.0,86,0.00,,---,0.00,VWS V14.00,2013-09-07 12:30:00,
2013-09-07 07:34:00,68.0,63.7,29.81,South,178,0.0,0.0,86,0.00,,---,0.00,VWS V14.00,2013-09-07 12:34:00,
2013-09-07 07:35:00,68.0,63.7,29.81,South,178,0.0,0.0,86,0.00,,---,0.00,VWS V14.00,2013-09-07 12:35:00,
2013-09-07 07:39:00,68.4,63.7,29.82,South,177,0.0,1.0,85,0.00,,---,0.00,VWS V14.00,2013-09-07 12:39:00,
2013-09-07 07:40:00,68.4,63.7,29.82,South,177,0.0,1.0,85,0.00,,---,0.00,VWS V14.00,2013-09-07 12:40:00,
2013-09-07 07:44:00,68.7,63.7,29.81,South,176,0.0,1.0,84,0.00,,---,0.00,VWS V14.00,2013-09-07 12:44:00,
2013-09-07 07:45:00,68.8,63.8,29.81,South,176,0.0,1.0,84,0.00,,---,0.00,VWS V14.00,2013-09-07 12:45:00,
2013-09-07 07:49:00,69.2,64.2,29.81,South,177,0.0,1.0,84,0.00,,---,0.00,VWS V14.00,2013-09-07 12:49:00,
2013-09-07 07:50:00,69.2,64.2,29.81,South,177,0.0,1.0,84,0.00,,---,0.00,VWS V14.00,2013-09-07 12:50:00,
2013-09-07 07:54:00,69.6,64.2,29.81,South,172,0.0,1.0,83,0.00,,---,0.00,VWS V14.00,2013-09-07 12:54:00,
2013-09-07 07:59:00,70.0,64.6,29.81,South,172,0.0,1.0,83,0.00,,---,0.00,VWS V14.00,2013-09-07 12:59:00,
2013-09-07 08:04:00,70.5,64.8,29.81,South,172,0.0,1.0,82,0.00,,---,0.00,VWS V14.00,2013-09-07 13:04:00,
2013-09-07 08:05:00,70.5,64.8,29.81,South,172,0.0,1.0,82,0.00,,---,0.00,VWS V14.00,2013-09-07 13:05:00,
2013-09-07 08:09:00,70.8,64.7,29.80,SSE,164,0.0,1.0,81,0.00,,---,0.00,VWS V14.00,2013-09-07 13:09:00,
2013-09-07 08:10:00,70.8,64.7,29.80,SSE,164,0.0,1.0,81,0.00,,---,0.00,VWS V14.00,2013-09-07 13:10:00,
2013-09-07 08:14:00,71.3,64.8,29.80,SSE,161,0.0,2.0,80,0.00,,---,0.00,VWS V14.00,2013-09-07 13:14:00,
2013-09-07 08:19:00,71.5,65.0,29.80,SSE,163,0.0,2.0,80,0.00,,---,0.00,VWS V14.00,2013-09-07 13:19:00,
2013-09-07 08:24:00,71.7,65.2,29.80,SSE,162,0.0,1.0,80,0.00,,---,0.00,VWS V14.00,2013-09-07 13:24:00,
2013-09-07 08:25:00,71.7,65.2,29.80,SSE,162,0.0,1.0,80,0.00,,---,0.00,VWS V14.00,2013-09-07 13:25:00,
2013-09-07 08:29:00,71.8,65.3,29.80,SSE,162,0.0,1.0,80,0.00,,---,0.00,VWS V14.00,2013-09-07 13:29:00,
2013-09-07 08:30:00,71.8,65.3,29.80,SSE,162,0.0,1.0,80,0.00,,---,0.00,VWS V14.00,2013-09-07 13:30:00,
2013-09-07 08:34:00,72.1,65.2,29.80,SSE,162,0.0,1.0,79,0.00,,---,0.00,VWS V14.00,2013-09-07 13:34:00,
2013-09-07 08:35:00,72.1,65.2,29.80,SSE,162,0.0,1.0,79,0.00,,---,0.00,VWS V14.00,2013-09-07 13:35:00,
2013-09-07 08:39:00,72.6,65.7,29.79,SSE,161,3.0,4.0,79,0.00,,---,0.00,VWS V14.00,2013-09-07 13:39:00,
2013-09-07 08:40:00,72.6,65.7,29.79,SSE,161,3.0,4.0,79,0.00,,---,0.00,VWS V14.00,2013-09-07 13:40:00,
2013-09-07 08:44:00,73.2,65.9,29.79,SSE,163,1.0,3.0,78,0.00,,---,0.00,VWS V14.00,2013-09-07 13:44:00,
2013-09-07 08:45:00,73.2,65.9,29.79,SSE,163,1.0,3.0,78,0.00,,---,0.00,VWS V14.00,2013-09-07 13:45:00,
2013-09-07 08:49:00,74.0,66.0,29.79,SSE,163,1.0,1.0,76,0.00,,---,0.00,VWS V14.00,2013-09-07 13:49:00,
2013-09-07 08:54:00,74.4,66.3,29.79,SSE,164,1.0,4.0,76,0.00,,---,0.00,VWS V14.00,2013-09-07 13:54:00,
2013-09-07 08:59:00,75.1,66.2,29.79,SSW,206,1.0,4.0,74,0.00,,---,0.00,VWS V14.00,2013-09-07 13:59:00,
2013-09-07 09:00:00,75.1,66.2,29.79,SSW,206,1.0,4.0,74,0.00,,---,0.00,VWS V14.00,2013-09-07 14:00:00,
2013-09-07 09:04:00,75.8,66.5,29.80,SW,225,0.0,3.0,73,0.00,,---,0.00,VWS V14.00,2013-09-07 14:04:00,
2013-09-07 09:05:00,75.8,66.5,29.80,SW,225,0.0,3.0,73,0.00,,---,0.00,VWS V14.00,2013-09-07 14:05:00,
2013-09-07 09:09:00,75.9,66.2,29.80,WSW,237,0.0,4.0,72,0.00,,---,0.00,VWS V14.00,2013-09-07 14:09:00,
2013-09-07 09:14:00,75.9,67.0,29.80,SW,225,0.0,5.0,74,0.00,,---,0.00,VWS V14.00,2013-09-07 14:14:00,
2013-09-07 09:15:00,75.9,67.0,29.80,SW,225,0.0,5.0,74,0.00,,---,0.00,VWS V14.00,2013-09-07 14:15:00,
2013-09-07 09:19:00,76.0,67.1,29.79,South,172,0.0,3.0,74,0.00,,---,0.00,VWS V14.00,2013-09-07 14:19:00,
2013-09-07 09:20:00,76.0,67.1,29.79,South,172,0.0,3.0,74,0.00,,---,0.00,VWS V14.00,2013-09-07 14:20:00,
2013-09-07 09:24:00,76.2,67.3,29.79,South,172,0.0,2.0,74,0.00,,---,0.00,VWS V14.00,2013-09-07 14:24:00,
2013-09-07 09:25:00,76.2,67.3,29.79,South,172,0.0,2.0,74,0.00,,---,0.00,VWS V14.00,2013-09-07 14:25:00,
2013-09-07 09:29:00,76.4,67.1,29.79,SE,141,0.0,2.0,73,0.00,,---,0.00,VWS V14.00,2013-09-07 14:29:00,
2013-09-07 09:34:00,76.6,67.3,29.79,SSE,160,0.0,5.0,73,0.00,,---,0.00,VWS V14.00,2013-09-07 14:34:00,
2013-09-07 09:39:00,77.2,67.5,29.78,SSW,212,5.0,6.0,72,0.00,,---,0.00,VWS V14.00,2013-09-07 14:39:00,
2013-09-07 09:40:00,77.2,67.5,29.78,SSW,212,5.0,6.0,72,0.00,,---,0.00,VWS V14.00,2013-09-07 14:40:00,
2013-09-07 09:44:00,77.9,67.8,29.78,South,180,1.0,5.0,71,0.00,,---,0.00,VWS V14.00,2013-09-07 14:44:00,
2013-09-07 09:49:00,78.2,66.8,29.78,West,262,5.0,6.0,68,0.00,,---,0.00,VWS V14.00,2013-09-07 14:49:00,
2013-09-07 09:54:00,77.9,66.5,29.79,WSW,241,0.0,7.0,68,0.00,,---,0.00,VWS V14.00,2013-09-07 14:54:00,
2013-09-07 09:55:00,77.9,66.5,29.79,WSW,241,0.0,7.0,68,0.00,,---,0.00,VWS V14.00,2013-09-07 14:55:00,
2013-09-07 09:59:00,77.9,67.8,29.79,WSW,257,0.0,6.0,71,0.00,,---,0.00,VWS V14.00,2013-09-07 14:59:00,
2013-09-07 10:00:00,77.9,67.8,29.79,WSW,257,0.0,6.0,71,0.00,,---,0.00,VWS V14.00,2013-09-07 15:00:00,
2013-09-07 10:04:00,77.0,68.5,29.78,West,267,1.0,5.0,75,0.00,,---,0.00,VWS V14.00,2013-09-07 15:04:00,
2013-09-07 10:09:00,75.7,68.4,29.78,SW,234,0.0,4.0,78,0.00,,---,0.00,VWS V14.00,2013-09-07 15:09:00,
2013-09-07 10:14:00,75.1,68.5,29.78,SW,225,2.0,4.0,80,0.00,,---,0.00,VWS V14.00,2013-09-07 15:14:00,
2013-09-07 10:15:00,75.1,68.5,29.78,SW,225,2.0,4.0,80,0.00,,---,0.00,VWS V14.00,2013-09-07 15:15:00,
2013-09-07 10:19:00,74.5,68.7,29.78,SSW,200,0.0,7.0,82,0.00,,---,0.00,VWS V14.00,2013-09-07 15:19:00,
2013-09-07 10:20:00,74.5,68.7,29.78,SSW,200,0.0,7.0,82,0.00,,---,0.00,VWS V14.00,2013-09-07 15:20:00,
2013-09-07 10:24:00,74.2,68.0,29.78,SSW,207,1.0,7.0,81,0.00,,---,0.00,VWS V14.00,2013-09-07 15:24:00,
2013-09-07 10:25:00,74.2,68.0,29.78,SSW,207,1.0,7.0,81,0.00,,---,0.00,VWS V14.00,2013-09-07 15:25:00,
2013-09-07 10:29:00,74.4,69.3,29.78,SW,216,5.0,5.0,84,0.00,,---,0.00,VWS V14.00,2013-09-07 15:29:00,
2013-09-07 10:34:00,74.6,69.1,29.78,South,173,0.0,8.0,83,0.00,,---,0.00,VWS V14.00,2013-09-07 15:34:00,
2013-09-07 10:35:00,74.6,69.1,29.78,South,173,0.0,8.0,83,0.00,,---,0.00,VWS V14.00,2013-09-07 15:35:00,
2013-09-07 10:39:00,74.7,68.8,29.78,South,191,3.0,8.0,82,0.00,,---,0.00,VWS V14.00,2013-09-07 15:39:00,
2013-09-07 10:40:00,74.7,68.8,29.78,South,191,3.0,8.0,82,0.00,,---,0.00,VWS V14.00,2013-09-07 15:40:00,
2013-09-07 10:44:00,75.3,69.4,29.78,WSW,244,5.0,7.0,82,0.00,,---,0.00,VWS V14.00,2013-09-07 15:44:00,
2013-09-07 10:45:00,75.3,69.4,29.78,WSW,244,5.0,7.0,82,0.00,,---,0.00,VWS V14.00,2013-09-07 15:45:00,
2013-09-07 10:49:00,75.5,68.9,29.78,WSW,254,3.0,6.0,80,0.00,,---,0.00,VWS V14.00,2013-09-07 15:49:00,
2013-09-07 10:54:00,76.0,70.1,29.78,SSW,205,5.0,6.0,82,0.00,,---,0.00,VWS V14.00,2013-09-07 15:54:00,
2013-09-07 10:55:00,76.0,70.1,29.78,SSW,205,5.0,6.0,82,0.00,,---,0.00,VWS V14.00,2013-09-07 15:55:00,
2013-09-07 10:59:00,76.9,69.5,29.78,SSE,167,1.0,6.0,78,0.00,,---,0.00,VWS V14.00,2013-09-07 15:59:00,
2013-09-07 11:04:00,77.5,70.1,29.78,WSW,240,0.0,7.0,78,0.00,,---,0.00,VWS V14.00,2013-09-07 16:04:00,
2013-09-07 11:09:00,78.1,69.1,29.78,West,261,2.0,7.0,74,0.00,,---,0.00,VWS V14.00,2013-09-07 16:09:00,
2013-09-07 11:10:00,78.1,69.1,29.78,West,261,2.0,7.0,74,0.00,,---,0.00,VWS V14.00,2013-09-07 16:10:00,
2013-09-07 11:14:00,78.9,69.9,29.78,South,178,0.0,9.0,74,0.00,,---,0.00,VWS V14.00,2013-09-07 16:14:00,
2013-09-07 11:15:00,78.9,69.9,29.78,South,178,0.0,9.0,74,0.00,,---,0.00,VWS V14.00,2013-09-07 16:15:00,
2013-09-07 11:19:00,80.2,70.4,29.77,SSE,159,2.0,10.0,72,0.00,,---,0.00,VWS V14.00,2013-09-07 16:19:00,
2013-09-07 11:24:00,81.3,70.6,29.77,SSE,161,0.0,7.0,70,0.00,,---,0.00,VWS V14.00,2013-09-07 16:24:00,
2013-09-07 11:29:00,82.5,70.4,29.77,SSE,168,3.0,5.0,67,0.00,,---,0.00,VWS V14.00,2013-09-07 16:29:00,
2013-09-07 11:30:00,82.5,70.4,29.77,SSE,168,3.0,5.0,67,0.00,,---,0.00,VWS V14.00,2013-09-07 16:30:00,
2013-09-07 11:34:00,83.3,70.8,29.77,SSE,167,4.0,6.0,66,0.00,,---,0.00,VWS V14.00,2013-09-07 16:34:00,
2013-09-07 11:35:00,83.3,70.8,29.77,SSE,167,4.0,6.0,66,0.00,,---,0.00,VWS V14.00,2013-09-07 16:35:00,
2013-09-07 11:39:00,83.7,70.2,29.76,SSE,168,0.0,5.0,64,0.00,,---,0.00,VWS V14.00,2013-09-07 16:39:00,
2013-09-07 11:44:00,84.0,71.4,29.76,SSE,168,1.0,1.0,66,0.00,,---,0.00,VWS V14.00,2013-09-07 16:44:00,
2013-09-07 11:49:00,84.4,70.9,29.76,NW,311,0.0,6.0,64,0.00,,---,0.00,VWS V14.00,2013-09-07 16:49:00,
2013-09-07 11:50:00,84.4,70.9,29.76,NW,311,0.0,6.0,64,0.00,,---,0.00,VWS V14.00,2013-09-07 16:50:00,
2013-09-07 11:54:00,85.1,71.1,29.76,SSW,211,0.0,5.0,63,0.00,,---,0.00,VWS V14.00,2013-09-07 16:54:00,
2013-09-07 11:55:00,85.1,71.1,29.76,SSW,211,0.0,5.0,63,0.00,,---,0.00,VWS V14.00,2013-09-07 16:55:00,
2013-09-07 11:59:00,85.3,70.3,29.76,SW,235,0.0,6.0,61,0.00,,---,0.00,VWS V14.00,2013-09-07 16:59:00,
2013-09-07 12:00:00,85.3,70.3,29.76,SW,235,0.0,6.0,61,0.00,,---,0.00,VWS V14.00,2013-09-07 17:00:00,
2013-09-07 12:04:00,85.7,71.2,29.75,ENE,65,3.0,7.0,62,0.00,,---,0.00,VWS V14.00,2013-09-07 17:04:00,
2013-09-07 12:05:00,85.7,71.2,29.75,ENE,65,3.0,7.0,62,0.00,,---,0.00,VWS V14.00,2013-09-07 17:05:00,
2013-09-07 12:09:00,85.9,70.9,29.76,North,351,0.0,4.0,61,0.00,,---,0.00,VWS V14.00,2013-09-07 17:09:00,
2013-09-07 12:10:00,85.9,70.9,29.76,North,351,0.0,4.0,61,0.00,,---,0.00,VWS V14.00,2013-09-07 17:10:00,
2013-09-07 12:14:00,86.2,70.7,29.76,South,171,0.0,2.0,60,0.00,,---,0.00,VWS V14.00,2013-09-07 17:14:00,
2013-09-07 12:15:00,86.1,70.6,29.75,South,169,1.0,6.0,60,0.00,,---,0.00,VWS V14.00,2013-09-07 17:15:00,
2013-09-07 12:19:00,86.2,69.7,29.76,West,269,1.0,4.0,58,0.00,,---,0.00,VWS V14.00,2013-09-07 17:19:00,
2013-09-07 12:20:00,86.3,69.8,29.76,West,268,4.0,7.0,58,0.00,,---,0.00,VWS V14.00,2013-09-07 17:20:00,
2013-09-07 12:24:00,86.2,70.7,29.76,North,351,4.0,4.0,60,0.00,,---,0.00,VWS V14.00,2013-09-07 17:24:00,
2013-09-07 12:29:00,86.0,70.0,29.76,NW,313,0.0,3.0,59,0.00,,---,0.00,VWS V14.00,2013-09-07 17:29:00,
2013-09-07 12:30:00,86.1,70.6,29.76,NW,323,3.0,6.0,60,0.00,,---,0.00,VWS V14.00,2013-09-07 17:30:00,
2013-09-07 12:34:00,85.7,69.7,29.75,NW,304,0.0,2.0,59,0.00,,---,0.00,VWS V14.00,2013-09-07 17:34:00,
2013-09-07 12:35:00,85.7,70.2,29.75,NW,304,2.0,8.0,60,0.00,,---,0.00,VWS V14.00,2013-09-07 17:35:00,
2013-09-07 12:39:00,85.5,70.0,29.75,WSW,250,0.0,4.0,60,0.00,,---,0.00,VWS V14.00,2013-09-07 17:39:00,
2013-09-07 12:40:00,85.5,70.5,29.75,West,261,4.0,10.0,61,0.00,,---,0.00,VWS V14.00,2013-09-07 17:40:00,
2013-09-07 12:44:00,85.5,71.0,29.75,North,5,0.0,4.0,62,0.00,,---,0.00,VWS V14.00,2013-09-07 17:44:00,
2013-09-07 12:45:00,85.5,71.0,29.75,North,355,3.0,10.0,62,0.00,,---,0.00,VWS V14.00,2013-09-07 17:45:00,
2013-09-07 12:50:00,85.6,70.6,29.75,North,5,0.0,1.0,61,0.00,,---,0.00,VWS V14.00,2013-09-07 17:50:00,
2013-09-07 12:55:00,85.7,71.2,29.75,WSW,254,0.0,1.0,62,0.00,,---,0.00,VWS V14.00,2013-09-07 17:55:00,
2013-09-07 13:00:00,85.9,71.4,29.74,NNW,348,3.0,9.0,62,0.00,,---,0.00,VWS V14.00,2013-09-07 18:00:00,
2013-09-07 13:05:00,85.9,71.4,29.74,SSE,159,3.0,4.0,62,0.00,,---,0.00,VWS V14.00,2013-09-07 18:05:00,
2013-09-07 13:10:00,86.0,71.0,29.74,SSW,194,1.0,4.0,61,0.00,,---,0.00,VWS V14.00,2013-09-07 18:10:00,
2013-09-07 13:15:00,86.5,71.5,29.74,SW,233,0.0,1.0,61,0.00,,---,0.00,VWS V14.00,2013-09-07 18:15:00,
2013-09-07 13:20:00,86.8,70.3,29.74,SW,221,0.0,4.0,58,0.00,,---,0.00,VWS V14.00,2013-09-07 18:20:00,
2013-09-07 13:25:00,86.7,71.2,29.74,West,261,0.0,3.0,60,0.00,,---,0.00,VWS V14.00,2013-09-07 18:25:00,
2013-09-07 13:30:00,87.2,72.6,29.74,West,264,2.0,2.0,62,0.00,,---,0.00,VWS V14.00,2013-09-07 18:30:00,
2013-09-07 13:35:00,87.7,71.1,29.74,NW,314,0.0,1.0,58,0.00,,---,0.00,VWS V14.00,2013-09-07 18:35:00,
2013-09-07 13:40:00,87.8,71.7,29.74,SW,227,0.0,1.0,59,0.00,,---,0.00,VWS V14.00,2013-09-07 18:40:00,
2013-09-07 13:45:00,87.8,70.7,29.74,NNW,342,2.0,3.0,57,0.00,,---,0.00,VWS V14.00,2013-09-07 18:45:00,
2013-09-07 13:50:00,87.8,71.7,29.74,NNW,346,5.0,5.0,59,0.00,,---,0.00,VWS V14.00,2013-09-07 18:50:00,
2013-09-07 13:55:00,87.4,71.3,29.74,NW,312,0.0,3.0,59,0.00,,---,0.00,VWS V14.00,2013-09-07 18:55:00,
2013-09-07 14:00:00,87.2,71.6,29.74,NW,322,0.0,1.0,60,0.00,,---,0.00,VWS V14.00,2013-09-07 19:00:00,
2013-09-07 14:05:00,87.2,71.6,29.74,WNW,283,0.0,5.0,60,0.00,,---,0.00,VWS V14.00,2013-09-07 19:05:00,
2013-09-07 14:10:00,87.4,71.3,29.74,NW,326,2.0,3.0,59,0.00,,---,0.00,VWS V14.00,2013-09-07 19:10:00,
2013-09-07 14:15:00,87.3,71.2,29.74,NNW,327,0.0,1.0,59,0.00,,---,0.00,VWS V14.00,2013-09-07 19:15:00,
2013-09-07 14:20:00,86.8,71.8,29.74,WNW,302,2.0,2.0,61,0.00,,---,0.00,VWS V14.00,2013-09-07 19:20:00,
2013-09-07 14:25:00,86.7,71.7,29.74,NW,307,3.0,3.0,61,0.00,,---,0.00,VWS V14.00,2013-09-07 19:25:00,
2013-09-07 14:30:00,86.5,71.9,29.73,NNW,331,4.0,4.0,62,0.00,,---,0.00,VWS V14.00,2013-09-07 19:30:00,
2013-09-07 14:35:00,86.5,71.9,29.73,NW,318,0.0,1.0,62,0.00,,---,0.00,VWS V14.00,2013-09-07 19:35:00,
2013-09-07 14:40:00,86.8,72.2,29.73,NW,325,4.0,4.0,62,0.00,,---,0.00,VWS V14.00,2013-09-07 19:40:00,
2013-09-07 14:41:00,86.9,72.3,29.73,NW,313,4.0,4.0,62,0.00,,---,0.00,VWS V14.00,2013-09-07 19:41:00,
2013-09-07 14:45:00,87.2,73.1,29.73,WNW,301,4.0,4.0,63,0.00,,---,0.00,VWS V14.00,2013-09-07 19:45:00,
2013-09-07 14:46:00,87.3,72.7,29.73,North,355,1.0,5.0,62,0.00,,---,0.00,VWS V14.00,2013-09-07 19:46:00,
2013-09-07 14:50:00,87.3,72.2,29.73,North,5,0.0,5.0,61,0.00,,---,0.00,VWS V14.00,2013-09-07 19:50:00,
2013-09-07 14:51:00,87.3,72.2,29.73,North,360,0.0,1.0,61,0.00,,---,0.00,VWS V14.00,2013-09-07 19:51:00,
2013-09-07 14:55:00,87.3,72.2,29.73,SW,226,1.0,2.0,61,0.00,,---,0.00,VWS V14.00,2013-09-07 19:55:00,
2013-09-07 14:56:00,87.5,71.9,29.73,SW,221,1.0,4.0,60,0.00,,---,0.00,VWS V14.00,2013-09-07 19:56:00,
2013-09-07 15:00:00,87.5,71.4,29.73,SW,221,0.0,4.0,59,0.00,,---,0.00,VWS V14.00,2013-09-07 20:00:00,
2013-09-07 15:01:00,87.4,71.8,29.73,WSW,242,0.0,1.0,60,0.00,,---,0.00,VWS V14.00,2013-09-07 20:01:00,
2013-09-07 15:05:00,87.5,72.4,29.73,WSW,258,0.0,4.0,61,0.00,,---,0.00,VWS V14.00,2013-09-07 20:05:00,
2013-09-07 15:06:00,87.6,72.0,29.73,NW,310,0.0,1.0,60,0.00,,---,0.00,VWS V14.00,2013-09-07 20:06:00,
2013-09-07 15:10:00,87.8,71.7,29.73,SW,215,3.0,4.0,59,0.00,,---,0.00,VWS V14.00,2013-09-07 20:10:00,
2013-09-07 15:11:00,87.9,71.8,29.73,WSW,257,0.0,3.0,59,0.00,,---,0.00,VWS V14.00,2013-09-07 20:11:00,
2013-09-07 15:15:00,88.1,71.5,29.73,NW,315,1.0,3.0,58,0.00,,---,0.00,VWS V14.00,2013-09-07 20:15:00,
2013-09-07 15:16:00,88.2,72.1,29.73,NW,321,4.0,4.0,59,0.00,,---,0.00,VWS V14.00,2013-09-07 20:16:00,
2013-09-07 15:20:00,88.4,72.3,29.73,NNW,330,1.0,6.0,59,0.00,,---,0.00,VWS V14.00,2013-09-07 20:20:00,
2013-09-07 15:21:00,88.4,72.3,29.73,SSW,198,0.0,1.0,59,0.00,,---,0.00,VWS V14.00,2013-09-07 20:21:00,
2013-09-07 15:25:00,88.3,71.7,29.73,South,180,0.0,2.0,58,0.00,,---,0.00,VWS V14.00,2013-09-07 20:25:00,
2013-09-07 15:26:00,88.3,72.2,29.73,WSW,249,1.0,2.0,59,0.00,,---,0.00,VWS V14.00,2013-09-07 20:26:00,
2013-09-07 15:30:00,88.6,72.9,29.73,WSW,248,0.0,2.0,60,0.00,,---,0.00,VWS V14.00,2013-09-07 20:30:00,
2013-09-07 15:31:00,88.6,71.9,29.73,SSW,199,3.0,4.0,58,0.00,,---,0.00,VWS V14.00,2013-09-07 20:31:00,
2013-09-07 15:35:00,88.2,71.6,29.73,SSW,196,0.0,5.0,58,0.00,,---,0.00,VWS V14.00,2013-09-07 20:35:00,
2013-09-07 15:36:00,88.2,72.1,29.73,SSW,196,1.0,1.0,59,0.00,,---,0.00,VWS V14.00,2013-09-07 20:36:00,
2013-09-07 15:40:00,88.2,72.6,29.73,SSW,200,0.0,2.0,60,0.00,,---,0.00,VWS V14.00,2013-09-07 20:40:00,
2013-09-07 15:41:00,88.1,72.0,29.73,SSW,198,1.0,2.0,59,0.00,,---,0.00,VWS V14.00,2013-09-07 20:41:00,
2013-09-07 15:45:00,88.0,71.9,29.73,SSW,198,0.0,2.0,59,0.00,,---,0.00,VWS V14.00,2013-09-07 20:45:00,
2013-09-07 15:46:00,88.1,72.0,29.73,NW,314,2.0,5.0,59,0.00,,---,0.00,VWS V14.00,2013-09-07 20:46:00,
2013-09-07 15:50:00,88.3,71.7,29.73,NNW,329,0.0,5.0,58,0.00,,---,0.00,VWS V14.00,2013-09-07 20:50:00,
2013-09-07 15:51:00,88.3,71.7,29.73,NNW,330,0.0,0.0,58,0.00,,---,0.00,VWS V14.00,2013-09-07 20:51:00,
2013-09-07 15:55:00,88.4,72.3,29.73,NW,323,0.0,1.0,59,0.00,,---,0.00,VWS V14.00,2013-09-07 20:55:00,
2013-09-07 15:56:00,88.5,72.8,29.73,NW,323,1.0,1.0,60,0.00,,---,0.00,VWS V14.00,2013-09-07 20:56:00,
2013-09-07 16:00:00,88.7,73.0,29.73,NW,323,0.0,1.0,60,0.00,,---,0.00,VWS V14.00,2013-09-07 21:00:00,
2013-09-07 16:01:00,88.8,72.1,29.73,NW,323,0.0,0.0,58,0.00,,---,0.00,VWS V14.00,2013-09-07 21:01:00,
2013-09-07 16:05:00,88.8,72.6,29.73,NW,323,0.0,1.0,59,0.00,,---,0.00,VWS V14.00,2013-09-07 21:05:00,
2013-09-07 16:06:00,88.8,72.1,29.73,West,264,0.0,5.0,58,0.00,,---,0.00,VWS V14.00,2013-09-07 21:06:00,
2013-09-07 16:10:00,88.9,72.2,29.73,SW,233,0.0,5.0,58,0.00,,---,0.00,VWS V14.00,2013-09-07 21:10:00,
2013-09-07 16:11:00,88.6,71.4,29.73,SW,215,0.0,2.0,57,0.00,,---,0.00,VWS V14.00,2013-09-07 21:11:00,
2013-09-07 16:15:00,88.5,71.8,29.73,SW,215,0.0,2.0,58,0.00,,---,0.00,VWS V14.00,2013-09-07 21:15:00,
2013-09-07 16:16:00,88.4,72.3,29.73,SW,215,0.0,1.0,59,0.00,,---,0.00,VWS V14.00,2013-09-07 21:16:00,
2013-09-07 16:20:00,88.3,72.2,29.73,SW,215,0.0,1.0,59,0.00,,---,0.00,VWS V14.00,2013-09-07 21:20:00,
2013-09-07 16:22:00,88.2,72.1,29.73,SW,214,0.0,1.0,59,0.00,,---,0.00,VWS V14.00,2013-09-07 21:22:00,
2013-09-07 16:25:00,88.0,72.4,29.73,SSE,161,0.0,3.0,60,0.00,,---,0.00,VWS V14.00,2013-09-07 21:25:00,
2013-09-07 16:27:00,87.9,71.8,29.73,ESE,116,0.0,2.0,59,0.00,,---,0.00,VWS V14.00,2013-09-07 21:27:00,
2013-09-07 16:30:00,87.9,72.3,29.73,East,89,0.0,2.0,60,0.00,,---,0.00,VWS V14.00,2013-09-07 21:30:00,
2013-09-07 16:32:00,88.1,72.5,29.73,East,87,1.0,1.0,60,0.00,,---,0.00,VWS V14.00,2013-09-07 21:32:00,
2013-09-07 16:35:00,88.1,72.5,29.73,East,83,0.0,1.0,60,0.00,,---,0.00,VWS V14.00,2013-09-07 21:35:00,
2013-09-07 16:37:00,87.9,73.7,29.73,East,82,1.0,3.0,63,0.00,,---,0.00,VWS V14.00,2013-09-07 21:37:00,
2013-09-07 16:40:00,87.7,72.6,29.73,NE,46,0.0,3.0,61,0.00,,---,0.00,VWS V14.00,2013-09-07 21:40:00,
2013-09-07 16:42:00,87.8,72.7,29.73,NE,46,0.0,1.0,61,0.00,,---,0.00,VWS V14.00,2013-09-07 21:42:00,
2013-09-07 16:45:00,88.0,73.4,29.73,NE,46,0.0,1.0,62,0.00,,---,0.00,VWS V14.00,2013-09-07 21:45:00,
2013-09-07 16:47:00,88.3,73.2,29.73,NE,45,0.0,1.0,61,0.00,,---,0.00,VWS V14.00,2013-09-07 21:47:00,
2013-09-07 16:50:00,88.4,72.3,29.73,NNW,337,0.0,2.0,59,0.00,,---,0.00,VWS V14.00,2013-09-07 21:50:00,
2013-09-07 16:52:00,88.5,72.8,29.73,NNW,337,0.0,1.0,60,0.00,,---,0.00,VWS V14.00,2013-09-07 21:52:00,
2013-09-07 16:55:00,88.4,73.2,29.73,NNW,337,0.0,1.0,61,0.00,,---,0.00,VWS V14.00,2013-09-07 21:55:00,
2013-09-07 16:57:00,88.3,72.2,29.73,NNW,337,0.0,1.0,59,0.00,,---,0.00,VWS V14.00,2013-09-07 21:57:00,
2013-09-07 17:00:00,88.2,72.1,29.73,NNW,337,0.0,1.0,59,0.00,,---,0.00,VWS V14.00,2013-09-07 22:00:00,
2013-09-07 17:02:00,88.2,74.0,29.73,NNW,337,0.0,0.0,63,0.00,,---,0.00,VWS V14.00,2013-09-07 22:02:00,
2013-09-07 17:05:00,88.2,74.5,29.73,NNW,337,0.0,0.0,64,0.00,,---,0.00,VWS V14.00,2013-09-07 22:05:00,
2013-09-07 17:07:00,88.2,73.1,29.73,NNW,337,0.0,0.0,61,0.00,,---,0.00,VWS V14.00,2013-09-07 22:07:00,
2013-09-07 17:10:00,88.3,74.1,29.73,NNW,337,0.0,1.0,63,0.00,,---,0.00,VWS V14.00,2013-09-07 22:10:00,
2013-09-07 17:12:00,88.4,73.2,29.73,NNW,337,0.0,1.0,61,0.00,,---,0.00,VWS V14.00,2013-09-07 22:12:00,
2013-09-07 17:15:00,88.4,72.8,29.73,NW,325,0.0,1.0,60,0.00,,---,0.00,VWS V14.00,2013-09-07 22:15:00,
2013-09-07 17:17:00,88.3,73.2,29.73,NW,315,0.0,1.0,61,0.00,,---,0.00,VWS V14.00,2013-09-07 22:17:00,
2013-09-07 17:20:00,88.1,73.0,29.73,NW,311,0.0,1.0,61,0.00,,---,0.00,VWS V14.00,2013-09-07 22:20:00,
2013-09-07 17:22:00,87.9,72.8,29.73,NW,309,0.0,1.0,61,0.00,,---,0.00,VWS V14.00,2013-09-07 22:22:00,
2013-09-07 17:25:00,87.9,73.3,29.73,NW,309,0.0,1.0,62,0.00,,---,0.00,VWS V14.00,2013-09-07 22:25:00,
2013-09-07 17:27:00,88.0,72.9,29.73,NW,309,0.0,1.0,61,0.00,,---,0.00,VWS V14.00,2013-09-07 22:27:00,
2013-09-07 17:30:00,88.1,73.0,29.73,NW,309,0.0,1.0,61,0.00,,---,0.00,VWS V14.00,2013-09-07 22:30:00,
2013-09-07 17:32:00,88.2,73.6,29.73,NW,309,0.0,1.0,62,0.00,,---,0.00,VWS V14.00,2013-09-07 22:32:00,
2013-09-07 17:35:00,88.3,73.2,29.73,NW,309,0.0,1.0,61,0.00,,---,0.00,VWS V14.00,2013-09-07 22:35:00,
2013-09-07 17:37:00,88.3,72.7,29.73,NW,309,0.0,1.0,60,0.00,,---,0.00,VWS V14.00,2013-09-07 22:37:00,
2013-09-07 17:40:00,88.1,72.5,29.73,NW,309,0.0,1.0,60,0.00,,---,0.00,VWS V14.00,2013-09-07 22:40:00,
2013-09-07 17:42:00,88.2,73.1,29.73,NW,309,0.0,1.0,61,0.00,,---,0.00,VWS V14.00,2013-09-07 22:42:00,
2013-09-07 17:45:00,88.2,72.1,29.73,NW,309,0.0,1.0,59,0.00,,---,0.00,VWS V14.00,2013-09-07 22:45:00,
2013-09-07 17:47:00,88.0,72.4,29.73,NW,309,0.0,1.0,60,0.00,,---,0.00,VWS V14.00,2013-09-07 22:47:00,
2013-09-07 17:50:00,87.9,72.3,29.73,NW,309,0.0,1.0,60,0.00,,---,0.00,VWS V14.00,2013-09-07 22:50:00,
2013-09-07 17:52:00,87.8,72.7,29.73,NW,309,0.0,0.0,61,0.00,,---,0.00,VWS V14.00,2013-09-07 22:52:00,
2013-09-07 17:55:00,87.8,72.2,29.73,NW,309,0.0,0.0,60,0.00,,---,0.00,VWS V14.00,2013-09-07 22:55:00,
2013-09-07 17:57:00,87.7,73.6,29.73,NW,309,0.0,0.0,63,0.00,,---,0.00,VWS V14.00,2013-09-07 22:57:00,
2013-09-07 18:00:00,87.7,74.0,29.74,NW,309,0.0,0.0,64,0.00,,---,0.00,VWS V14.00,2013-09-07 23:00:00,
2013-09-07 18:02:00,87.7,74.5,29.74,NW,309,0.0,0.0,65,0.00,,---,0.00,VWS V14.00,2013-09-07 23:02:00,
2013-09-07 18:05:00,87.6,74.4,29.74,NW,309,0.0,0.0,65,0.00,,---,0.00,VWS V14.00,2013-09-07 23:05:00,
2013-09-07 18:07:00,87.3,74.1,29.74,NW,309,0.0,1.0,65,0.00,,---,0.00,VWS V14.00,2013-09-07 23:07:00,
2013-09-07 18:10:00,87.1,73.4,29.74,NW,309,0.0,1.0,64,0.00,,---,0.00,VWS V14.00,2013-09-07 23:10:00,
2013-09-07 18:12:00,86.6,73.4,29.74,NW,309,0.0,1.0,65,0.00,,---,0.00,VWS V14.00,2013-09-07 23:12:00,
2013-09-07 18:15:00,86.3,73.2,29.74,NW,309,0.0,1.0,65,0.00,,---,0.00,VWS V14.00,2013-09-07 23:15:00,
2013-09-07 18:18:00,85.7,73.0,29.74,NW,309,0.0,0.0,66,0.00,,---,0.00,VWS V14.00,2013-09-07 23:18:00,
2013-09-07 18:20:00,85.5,73.3,29.74,NW,309,0.0,0.0,67,0.00,,---,0.00,VWS V14.00,2013-09-07 23:20:00,
2013-09-07 18:23:00,85.0,73.3,29.75,NW,309,0.0,1.0,68,0.00,,---,0.00,VWS V14.00,2013-09-07 23:23:00,
2013-09-07 18:25:00,84.7,73.4,29.75,NW,309,0.0,1.0,69,0.00,,---,0.00,VWS V14.00,2013-09-07 23:25:00,
2013-09-07 18:28:00,84.2,72.9,29.75,NW,309,0.0,0.0,69,0.00,,---,0.00,VWS V14.00,2013-09-07 23:28:00,
2013-09-07 18:30:00,84.0,72.7,29.75,NW,309,0.0,0.0,69,0.00,,---,0.00,VWS V14.00,2013-09-07 23:30:00,
2013-09-07 18:33:00,83.6,72.8,29.75,NW,309,0.0,0.0,70,0.00,,---,0.00,VWS V14.00,2013-09-07 23:33:00,
2013-09-07 18:35:00,83.4,72.6,29.75,NW,309,0.0,0.0,70,0.00,,---,0.00,VWS V14.00,2013-09-07 23:35:00,
2013-09-07 18:38:00,83.1,73.1,29.75,NW,309,0.0,1.0,72,0.00,,---,0.00,VWS V14.00,2013-09-07 23:38:00,
2013-09-07 18:40:00,82.9,72.9,29.75,NW,309,0.0,1.0,72,0.00,,---,0.00,VWS V14.00,2013-09-07 23:40:00,
2013-09-07 18:43:00,82.6,73.1,29.75,NW,309,0.0,0.0,73,0.00,,---,0.00,VWS V14.00,2013-09-07 23:43:00,
2013-09-07 18:45:00,82.4,72.9,29.75,NW,309,0.0,0.0,73,0.00,,---,0.00,VWS V14.00,2013-09-07 23:45:00,
2013-09-07 18:48:00,82.1,72.6,29.75,NW,309,0.0,0.0,73,0.00,,---,0.00,VWS V14.00,2013-09-07 23:48:00,
2013-09-07 18:50:00,82.0,72.9,29.75,NW,309,0.0,0.0,74,0.00,,---,0.00,VWS V14.00,2013-09-07 23:50:00,
2013-09-07 18:53:00,81.7,73.0,29.75,NW,309,0.0,0.0,75,0.00,,---,0.00,VWS V14.00,2013-09-07 23:53:00,
2013-09-07 18:55:00,81.6,72.9,29.75,NW,309,0.0,0.0,75,0.00,,---,0.00,VWS V14.00,2013-09-07 23:55:00,
2013-09-07 18:58:00,81.4,73.1,29.75,NW,309,0.0,0.0,76,0.00,,---,0.00,VWS V14.00,2013-09-07 23:58:00,
2013-09-07 19:00:00,81.3,73.0,29.75,NW,309,0.0,0.0,76,0.00,,---,0.00,VWS V14.00,2013-09-08 00:00:00,
2013-09-07 19:03:00,81.1,72.8,29.75,NW,309,0.0,0.0,76,0.00,,---,0.00,VWS V14.00,2013-09-08 00:03:00,
2013-09-07 19:05:00,81.0,73.1,29.75,NW,309,0.0,0.0,77,0.00,,---,0.00,VWS V14.00,2013-09-08 00:05:00,
2013-09-07 19:08:00,80.7,72.8,29.75,NW,309,0.0,1.0,77,0.00,,---,0.00,VWS V14.00,2013-09-08 00:08:00,
2013-09-07 19:10:00,80.6,72.7,29.75,NW,309,0.0,1.0,77,0.00,,---,0.00,VWS V14.00,2013-09-08 00:10:00,
2013-09-07 19:13:00,80.3,72.8,29.75,NW,309,0.0,1.0,78,0.00,,---,0.00,VWS V14.00,2013-09-08 00:13:00,
2013-09-07 19:15:00,80.2,72.7,29.75,NW,309,0.0,1.0,78,0.00,,---,0.00,VWS V14.00,2013-09-08 00:15:00,
2013-09-07 19:18:00,79.5,72.4,29.75,NW,309,0.0,0.0,79,0.00,,---,0.00,VWS V14.00,2013-09-08 00:18:00,
2013-09-07 19:20:00,79.4,72.3,29.75,NW,309,0.0,0.0,79,0.00,,---,0.00,VWS V14.00,2013-09-08 00:20:00,
2013-09-07 19:23:00,79.1,72.0,29.75,NW,309,0.0,0.0,79,0.00,,---,0.00,VWS V14.00,2013-09-08 00:23:00,
2013-09-07 19:25:00,79.0,71.9,29.75,NW,309,0.0,0.0,79,0.00,,---,0.00,VWS V14.00,2013-09-08 00:25:00,
2013-09-07 19:28:00,78.8,72.1,29.76,NW,309,0.0,0.0,80,0.00,,---,0.00,VWS V14.00,2013-09-08 00:28:00,
2013-09-07 19:30:00,78.7,72.0,29.76,NW,309,0.0,0.0,80,0.00,,---,0.00,VWS V14.00,2013-09-08 00:30:00,
2013-09-07 19:33:00,78.4,72.1,29.76,NW,309,0.0,0.0,81,0.00,,---,0.00,VWS V14.00,2013-09-08 00:33:00,
2013-09-07 19:35:00,78.3,72.4,29.75,NW,309,0.0,0.0,82,0.00,,---,0.00,VWS V14.00,2013-09-08 00:35:00,
2013-09-07 19:38:00,78.0,72.1,29.76,NW,309,0.0,0.0,82,0.00,,---,0.00,VWS V14.00,2013-09-08 00:38:00,
2013-09-07 19:40:00,77.9,72.0,29.75,NW,309,0.0,0.0,82,0.00,,---,0.00,VWS V14.00,2013-09-08 00:40:00,
2013-09-07 19:43:00,77.6,72.0,29.76,NW,309,0.0,0.0,83,0.00,,---,0.00,VWS V14.00,2013-09-08 00:43:00,
2013-09-07 19:45:00,77.6,72.0,29.76,NW,309,0.0,0.0,83,0.00,,---,0.00,VWS V14.00,2013-09-08 00:45:00,
2013-09-07 19:48:00,77.2,72.0,29.76,NW,309,0.0,0.0,84,0.00,,---,0.00,VWS V14.00,2013-09-08 00:48:00,
2013-09-07 19:50:00,77.1,71.9,29.76,NW,309,0.0,0.0,84,0.00,,---,0.00,VWS V14.00,2013-09-08 00:50:00,
2013-09-07 19:53:00,76.9,72.1,29.76,NW,309,0.0,0.0,85,0.00,,---,0.00,VWS V14.00,2013-09-08 00:53:00,
2013-09-07 19:55:00,76.9,72.1,29.76,NW,309,0.0,0.0,85,0.00,,---,0.00,VWS V14.00,2013-09-08 00:55:00,
2013-09-07 19:58:00,76.5,71.7,29.76,NW,309,0.0,0.0,85,0.00,,---,0.00,VWS V14.00,2013-09-08 00:58:00,
2013-09-07 20:00:00,76.5,71.7,29.76,NW,309,0.0,0.0,85,0.00,,---,0.00,VWS V14.00,2013-09-08 01:00:00,
2013-09-07 20:03:00,76.3,71.8,29.77,NW,309,0.0,0.0,86,0.00,,---,0.00,VWS V14.00,2013-09-08 01:03:00,
2013-09-07 20:05:00,76.2,71.7,29.77,NW,309,0.0,0.0,86,0.00,,---,0.00,VWS V14.00,2013-09-08 01:05:00,
2013-09-07 20:08:00,76.0,71.5,29.76,NW,309,0.0,0.0,86,0.00,,---,0.00,VWS V14.00,2013-09-08 01:08:00,
2013-09-07 20:10:00,76.0,71.5,29.76,NW,309,0.0,0.0,86,0.00,,---,0.00,VWS V14.00,2013-09-08 01:10:00,
2013-09-07 20:13:00,75.7,71.2,29.77,NW,309,0.0,0.0,86,0.00,,---,0.00,VWS V14.00,2013-09-08 01:13:00,
2013-09-07 20:15:00,75.6,71.1,29.77,NW,309,0.0,0.0,86,0.00,,---,0.00,VWS V14.00,2013-09-08 01:15:00,
2013-09-07 20:18:00,75.5,71.7,29.77,NW,309,0.0,0.0,88,0.00,,---,0.00,VWS V14.00,2013-09-08 01:18:00,
2013-09-07 20:20:00,75.5,71.7,29.77,NW,309,0.0,0.0,88,0.00,,---,0.00,VWS V14.00,2013-09-08 01:20:00,
2013-09-07 20:24:00,75.3,71.5,29.77,NW,309,0.0,0.0,88,0.00,,---,0.00,VWS V14.00,2013-09-08 01:24:00,
2013-09-07 20:25:00,75.3,71.5,29.77,NW,309,0.0,0.0,88,0.00,,---,0.00,VWS V14.00,2013-09-08 01:25:00,
2013-09-07 20:29:00,75.2,71.4,29.77,NW,309,0.0,0.0,88,0.00,,---,0.00,VWS V14.00,2013-09-08 01:29:00,
2013-09-07 20:30:00,75.1,71.3,29.77,NW,309,0.0,0.0,88,0.00,,---,0.00,VWS V14.00,2013-09-08 01:30:00,
2013-09-07 20:34:00,74.9,71.1,29.78,NW,309,0.0,0.0,88,0.00,,---,0.00,VWS V14.00,2013-09-08 01:34:00,
2013-09-07 20:35:00,74.9,71.1,29.78,NW,309,0.0,0.0,88,0.00,,---,0.00,VWS V14.00,2013-09-08 01:35:00,
2013-09-07 20:39:00,74.5,70.7,29.78,NW,309,0.0,0.0,88,0.00,,---,0.00,VWS V14.00,2013-09-08 01:39:00,
2013-09-07 20:40:00,74.5,70.7,29.78,NW,309,0.0,0.0,88,0.00,,---,0.00,VWS V14.00,2013-09-08 01:40:00,
2013-09-07 20:44:00,74.3,70.8,29.78,NW,309,0.0,0.0,89,0.00,,---,0.00,VWS V14.00,2013-09-08 01:44:00,
2013-09-07 20:45:00,74.2,70.8,29.78,NW,309,0.0,0.0,89,0.00,,---,0.00,VWS V14.00,2013-09-08 01:45:00,
2013-09-07 20:49:00,74.1,70.7,29.78,NW,309,0.0,0.0,89,0.00,,---,0.00,VWS V14.00,2013-09-08 01:49:00,
2013-09-07 20:50:00,74.1,70.7,29.78,NW,309,0.0,0.0,89,0.00,,---,0.00,VWS V14.00,2013-09-08 01:50:00,
2013-09-07 20:54:00,74.0,70.6,29.79,NW,309,0.0,0.0,89,0.00,,---,0.00,VWS V14.00,2013-09-08 01:54:00,
2013-09-07 20:55:00,73.9,70.5,29.79,NW,309,0.0,0.0,89,0.00,,---,0.00,VWS V14.00,2013-09-08 01:55:00,
2013-09-07 20:59:00,73.8,70.7,29.79,NW,309,0.0,0.0,90,0.00,,---,0.00,VWS V14.00,2013-09-08 01:59:00,
2013-09-07 21:00:00,73.8,70.7,29.79,NW,309,0.0,0.0,90,0.00,,---,0.00,VWS V14.00,2013-09-08 02:00:00,
2013-09-07 21:04:00,73.5,70.4,29.78,NW,309,0.0,0.0,90,0.00,,---,0.00,VWS V14.00,2013-09-08 02:04:00,
2013-09-07 21:05:00,73.5,70.4,29.78,NW,309,0.0,0.0,90,0.00,,---,0.00,VWS V14.00,2013-09-08 02:05:00,
2013-09-07 21:09:00,73.4,70.3,29.78,NW,309,0.0,0.0,90,0.00,,---,0.00,VWS V14.00,2013-09-08 02:09:00,
2013-09-07 21:10:00,73.3,70.2,29.78,NW,309,0.0,0.0,90,0.00,,---,0.00,VWS V14.00,2013-09-08 02:10:00,
2013-09-07 21:14:00,73.2,70.1,29.78,NW,309,0.0,0.0,90,0.00,,---,0.00,VWS V14.00,2013-09-08 02:14:00,
2013-09-07 21:15:00,73.2,70.1,29.78,NW,309,0.0,0.0,90,0.00,,---,0.00,VWS V14.00,2013-09-08 02:15:00,
2013-09-07 21:19:00,73.1,70.3,29.79,NW,309,0.0,1.0,91,0.00,,---,0.00,VWS V14.00,2013-09-08 02:19:00,
2013-09-07 21:20:00,73.1,70.3,29.79,NW,309,0.0,1.0,91,0.00,,---,0.00,VWS V14.00,2013-09-08 02:20:00,
2013-09-07 21:24:00,73.1,70.3,29.78,NW,309,0.0,0.0,91,0.00,,---,0.00,VWS V14.00,2013-09-08 02:24:00,
2013-09-07 21:25:00,73.1,70.3,29.78,NW,309,0.0,0.0,91,0.00,,---,0.00,VWS V14.00,2013-09-08 02:25:00,
2013-09-07 21:29:00,73.1,70.3,29.78,NW,309,0.0,1.0,91,0.00,,---,0.00,VWS V14.00,2013-09-08 02:29:00,
2013-09-07 21:30:00,73.1,70.3,29.78,NW,309,0.0,1.0,91,0.00,,---,0.00,VWS V14.00,2013-09-08 02:30:00,
2013-09-07 21:34:00,72.9,70.4,29.78,NW,309,0.0,0.0,92,0.00,,---,0.00,VWS V14.00,2013-09-08 02:34:00,
2013-09-07 21:35:00,72.9,70.4,29.78,NW,309,0.0,0.0,92,0.00,,---,0.00,VWS V14.00,2013-09-08 02:35:00,
2013-09-07 21:39:00,72.8,70.3,29.78,NW,309,0.0,0.0,92,0.00,,---,0.00,VWS V14.00,2013-09-08 02:39:00,
2013-09-07 21:40:00,72.8,70.3,29.78,NW,309,0.0,0.0,92,0.00,,---,0.00,VWS V14.00,2013-09-08 02:40:00,
2013-09-07 21:44:00,72.7,70.2,29.78,NW,309,0.0,0.0,92,0.00,,---,0.00,VWS V14.00,2013-09-08 02:44:00,
2013-09-07 21:45:00,72.7,70.2,29.78,NW,309,0.0,0.0,92,0.00,,---,0.00,VWS V14.00,2013-09-08 02:45:00,
2013-09-07 21:49:00,72.6,70.2,29.79,NW,309,0.0,0.0,92,0.00,,---,0.00,VWS V14.00,2013-09-08 02:49:00,
2013-09-07 21:50:00,72.6,70.2,29.79,NW,309,0.0,0.0,92,0.00,,---,0.00,VWS V14.00,2013-09-08 02:50:00,
2013-09-07 21:54:00,72.5,70.1,29.79,NW,309,0.0,1.0,92,0.00,,---,0.00,VWS V14.00,2013-09-08 02:54:00,
2013-09-07 21:55:00,72.5,70.1,29.79,NW,309,0.0,1.0,92,0.00,,---,0.00,VWS V14.00,2013-09-08 02:55:00,
2013-09-07 21:59:00,72.4,69.9,29.79,NW,309,0.0,0.0,92,0.00,,---,0.00,VWS V14.00,2013-09-08 02:59:00,
2013-09-07 22:00:00,72.4,69.9,29.79,NW,309,0.0,0.0,92,0.00,,---,0.00,VWS V14.00,2013-09-08 03:00:00,
2013-09-07 22:04:00,72.3,69.8,29.79,NW,309,0.0,0.0,92,0.00,,---,0.00,VWS V14.00,2013-09-08 03:04:00,
2013-09-07 22:05:00,72.3,69.8,29.79,NW,309,0.0,1.0,92,0.00,,---,0.00,VWS V14.00,2013-09-08 03:05:00,
2013-09-07 22:09:00,71.9,69.4,29.79,NW,309,0.0,0.0,92,0.00,,---,0.00,VWS V14.00,2013-09-08 03:09:00,
2013-09-07 22:10:00,71.9,69.4,29.79,NW,309,0.0,0.0,92,0.00,,---,0.00,VWS V14.00,2013-09-08 03:10:00,
2013-09-07 22:14:00,71.9,69.8,29.79,NW,309,0.0,0.0,93,0.00,,---,0.00,VWS V14.00,2013-09-08 03:14:00,
2013-09-07 22:15:00,71.9,69.8,29.79,NW,309,0.0,0.0,93,0.00,,---,0.00,VWS V14.00,2013-09-08 03:15:00,
2013-09-07 22:19:00,71.9,69.8,29.80,NW,309,0.0,0.0,93,0.00,,---,0.00,VWS V14.00,2013-09-08 03:19:00,
2013-09-07 22:20:00,71.9,69.8,29.79,NW,309,0.0,0.0,93,0.00,,---,0.00,VWS V14.00,2013-09-08 03:20:00,
2013-09-07 22:24:00,71.7,69.3,29.80,NW,309,0.0,0.0,92,0.00,,---,0.00,VWS V14.00,2013-09-08 03:24:00,
2013-09-07 22:25:00,71.7,69.3,29.80,NW,309,0.0,0.0,92,0.00,,---,0.00,VWS V14.00,2013-09-08 03:25:00,
2013-09-07 22:29:00,71.5,69.4,29.80,NW,309,0.0,0.0,93,0.00,,---,0.00,VWS V14.00,2013-09-08 03:29:00,
2013-09-07 22:30:00,71.5,69.4,29.80,NW,309,0.0,0.0,93,0.00,,---,0.00,VWS V14.00,2013-09-08 03:30:00,
2013-09-07 22:34:00,71.5,69.4,29.81,NNE,17,0.0,3.0,93,0.00,,---,0.00,VWS V14.00,2013-09-08 03:34:00,
2013-09-07 22:35:00,71.5,69.4,29.81,NNE,17,3.0,5.0,93,0.00,,---,0.00,VWS V14.00,2013-09-08 03:35:00,
2013-09-07 22:40:00,72.1,70.3,29.81,ENE,64,0.0,1.0,94,0.00,,---,0.00,VWS V14.00,2013-09-08 03:40:00,
2013-09-07 22:45:00,73.6,71.8,29.81,NNE,32,0.0,1.0,94,0.00,,---,0.00,VWS V14.00,2013-09-08 03:45:00,
2013-09-07 22:50:00,74.9,71.4,29.81,NNE,15,3.0,12.0,89,0.00,,---,0.00,VWS V14.00,2013-09-08 03:50:00,
2013-09-07 22:55:00,75.4,70.6,29.81,East,87,1.0,5.0,85,0.00,,---,0.00,VWS V14.00,2013-09-08 03:55:00,
2013-09-07 23:00:00,75.5,70.3,29.81,NNE,33,0.0,1.0,84,0.00,,---,0.00,VWS V14.00,2013-09-08 04:00:00,
2013-09-07 23:01:00,75.5,70.3,29.81,NNW,340,6.0,6.0,84,0.00,,---,0.00,VWS V14.00,2013-09-08 04:01:00,
2013-09-07 23:02:00,75.5,70.3,29.81,East,87,0.0,10.0,84,0.00,,---,0.00,VWS V14.00,2013-09-08 04:02:00,
2013-09-07 23:04:00,75.4,69.9,29.81,ENE,59,3.0,10.0,83,0.00,,---,0.00,VWS V14.00,2013-09-08 04:04:00,
2013-09-07 23:05:00,75.4,69.9,29.81,ENE,59,3.0,10.0,83,0.00,,---,0.00,VWS V14.00,2013-09-08 04:05:00,
2013-09-07 23:09:00,75.2,69.3,29.81,ESE,115,0.0,9.0,82,0.00,,---,0.00,VWS V14.00,2013-09-08 04:09:00,
2013-09-07 23:10:00,75.2,69.3,29.81,ESE,115,0.0,9.0,82,0.00,,---,0.00,VWS V14.00,2013-09-08 04:10:00,
2013-09-07 23:14:00,74.8,68.9,29.81,NNE,25,1.0,7.0,82,0.00,,---,0.00,VWS V14.00,2013-09-08 04:14:00,
2013-09-07 23:15:00,74.8,68.9,29.81,NNE,25,1.0,7.0,82,0.00,,---,0.00,VWS V14.00,2013-09-08 04:15:00,
2013-09-07 23:19:00,74.6,69.1,29.82,ESE,113,0.0,4.0,83,0.00,,---,0.00,VWS V14.00,2013-09-08 04:19:00,
2013-09-07 23:20:00,74.6,69.1,29.82,ESE,113,0.0,4.0,83,0.00,,---,0.00,VWS V14.00,2013-09-08 04:20:00,
2013-09-07 23:24:00,74.4,68.9,29.82,NNE,20,0.0,6.0,83,0.00,,---,0.00,VWS V14.00,2013-09-08 04:24:00,
2013-09-07 23:25:00,74.4,68.9,29.82,NNE,20,0.0,6.0,83,0.00,,---,0.00,VWS V14.00,2013-09-08 04:25:00,
2013-09-07 23:29:00,74.2,68.7,29.82,ENE,63,0.0,6.0,83,0.00,,---,0.00,VWS V14.00,2013-09-08 04:29:00,
2013-09-07 23:30:00,74.2,68.7,29.82,ENE,63,0.0,6.0,83,0.00,,---,0.00,VWS V14.00,2013-09-08 04:30:00,
2013-09-07 23:34:00,73.8,68.3,29.82,East,95,11.0,11.0,83,0.00,,---,0.00,VWS V14.00,2013-09-08 04:34:00,
2013-09-07 23:35:00,73.8,68.3,29.82,East,95,11.0,11.0,83,0.00,,---,0.00,VWS V14.00,2013-09-08 04:35:00,
2013-09-07 23:39:00,73.5,68.4,29.82,NE,55,1.0,13.0,84,0.00,,---,0.00,VWS V14.00,2013-09-08 04:39:00,
2013-09-07 23:40:00,73.5,68.4,29.82,NE,55,1.0,13.0,84,0.00,,---,0.00,VWS V14.00,2013-09-08 04:40:00,
2013-09-07 23:44:00,73.3,68.5,29.83,NE,44,0.0,7.0,85,0.00,,---,0.00,VWS V14.00,2013-09-08 04:44:00,
2013-09-07 23:45:00,73.3,68.5,29.83,NE,44,0.0,7.0,85,0.00,,---,0.00,VWS V14.00,2013-09-08 04:45:00,
2013-09-07 23:49:00,73.1,68.3,29.83,ENE,67,4.0,11.0,85,0.00,,---,0.00,VWS V14.00,2013-09-08 04:49:00,
2013-09-07 23:50:00,73.1,68.3,29.83,ENE,67,4.0,11.0,85,0.00,,---,0.00,VWS V14.00,2013-09-08 04:50:00,
2013-09-07 23:54:00,72.9,68.5,29.83,ENE,68,0.0,7.0,86,0.00,,---,0.00,VWS V14.00,2013-09-08 04:54:00,
2013-09-07 23:55:00,72.9,68.5,29.83,ENE,68,0.0,7.0,86,0.00,,---,0.00,VWS V14.00,2013-09-08 04:55:00,
2013-09-07 23:59:00,72.7,68.3,29.83,East,82,5.0,11.0,86,0.00,,---,0.00,VWS V14.00,2013-09-08 04:59:00,